Tracking 28570 objects as of 5-Mar-2024
HD Live streaming from Space Station
objects crossing your sky now

BREEZE-M R/B

Track BREEZE-M R/B now!
10-day predictions


NORAD ID: 28944
Int'l Code: 2006-006B
Perigee: 1,045.2 km
Apogee: 14,826.9 km
Inclination: 50.7 °
Period: 283.8 minutes
Semi major axis: 14307 km
RCS: 13.6373 m2 (large)
Launch date: February 28, 2006
Source: Commonwealth of Independent States (former USSR) (CIS)
Launch site: TYURATAM MISSILE AND SPACE COMPLEX (TTMTR)

Note: This is a ROCKET BODY
Your satellite tracking list
Your tracking list is empty




NASA's NSSDC Master Catalog

Two Line Element Set (TLE):
1 28944U 06006B   24064.75316803  .00000017  00000-0  00000-0 0  9996
2 28944  50.6711 250.9949 4816412  72.5402 339.3208  5.07316681315557
Source of the keplerian elements: AFSPC